Kosmos-83

operational
NORAD ID: 1573 Int'l Des: 1965-070 Owner: OKB10 Country: SU
LEOCIRCULAR

About Kosmos-83

Description loading...

Live Position

Loading 3D Globe...

Upcoming Passes

Altitude History

Altitude vs Time

uPlot chart will show altitude changes over time

Two-Line Element Set

1 01573U 65070D 25315.09502357 -.00000080 00000-0 99456-4 0 9997
2 01573 56.0526 202.4901 0068351 145.4726 215.0643 12.41042609728133
Epoch: Nov 11, 2025 • Age: 30 hours

Current Status

Altitude 1471.6 km
Velocity 7.14 km/s
Sub-Earth Point -14.48°S, 147.6°W
Type other

Large Constellations

Loading constellations...